RYR7VK EGGD-LHBP

Flight info

Callsign RYR7VK
Flight time 2h 9m
Altitude 35000
Route HAWFA L607 BIG UL9 KONAN UL607 SPI DCT GUBAX DCT BOREP DCT ENITA DCT ETVIS DCT BUDWA DCT BUDEX DCT TOVKA DCT ANEXA
Aircraft B738/M-SDE2E3FGHIRWXY/LB1

Departure

Time 2026-05-07 16:38
Airport Bristol Airport (EGGD)

Arrival

Time 2026-05-07 18:47
Airport Budapest Liszt Ferenc International Airport (LHBP)
Time Latitude Longitude Altitude Speed Heading
2026-05-07 16:38 51.42469 -2.51745 6465 ft 273 kts 28°
2026-05-07 16:38 51.44134 -2.50254 7267 ft 276 kts 28°
2026-05-07 16:38 51.45817 -2.48720 8130 ft 278 kts 28°
2026-05-07 16:39 51.47498 -2.47242 8973 ft 282 kts 28°
2026-05-07 16:39 51.49216 -2.45634 9737 ft 288 kts 30°
2026-05-07 16:39 51.50835 -2.43711 10417 ft 297 kts 47°
2026-05-07 16:39 51.51874 -2.40727 10607 ft 322 kts 76°
2026-05-07 16:40 51.51958 -2.37021 10854 ft 343 kts 96°
2026-05-07 16:40 51.51666 -2.33098 11036 ft 365 kts 98°
2026-05-07 16:40 51.51329 -2.29039 11540 ft 375 kts 97°
2026-05-07 16:40 51.51006 -2.24849 12266 ft 378 kts 97°
2026-05-07 16:41 51.50707 -2.20633 12988 ft 382 kts 97°
2026-05-07 16:41 51.50412 -2.16350 13661 ft 387 kts 96°
2026-05-07 16:41 51.50117 -2.12041 14279 ft 391 kts 97°
2026-05-07 16:41 51.49815 -2.07679 14936 ft 394 kts 97°
2026-05-07 16:42 51.49510 -2.03310 15573 ft 397 kts 97°
2026-05-07 16:42 51.49197 -1.98858 16170 ft 402 kts 97°
2026-05-07 16:42 51.48876 -1.94394 16791 ft 405 kts 97°
2026-05-07 16:42 51.48549 -1.89934 17383 ft 409 kts 97°
2026-05-07 16:43 51.48213 -1.85370 17967 ft 413 kts 97°
2026-05-07 16:43 51.47872 -1.80764 18515 ft 417 kts 97°
2026-05-07 16:43 51.47644 -1.77682 18862 ft 419 kts 97°
2026-05-07 16:43 51.47185 -1.71506 19553 ft 423 kts 97°
2026-05-07 16:44 51.46807 -1.66794 20073 ft 426 kts 99°
2026-05-07 16:44 51.46235 -1.62130 20553 ft 429 kts 103°
2026-05-07 16:44 51.45788 -1.59030 20865 ft 431 kts 104°
2026-05-07 16:44 51.45095 -1.54299 21347 ft 435 kts 103°
2026-05-07 16:45 51.44421 -1.49543 21816 ft 438 kts 103°
2026-05-07 16:45 51.43768 -1.44818 22267 ft 441 kts 103°
2026-05-07 16:45 51.43275 -1.41252 22604 ft 443 kts 103°
2026-05-07 16:45 51.42605 -1.36405 23039 ft 447 kts 103°
2026-05-07 16:46 51.41940 -1.31618 22806 ft 448 kts 102°
2026-05-07 16:46 51.41264 -1.26770 24164 ft 444 kts 103°
2026-05-07 16:46 51.40582 -1.21884 24317 ft 453 kts 103°
2026-05-07 16:46 51.39884 -1.16911 24535 ft 460 kts 103°
2026-05-07 16:47 51.39333 -1.11844 24890 ft 462 kts 97°
2026-05-07 16:47 51.39042 -1.06795 25303 ft 463 kts 95°
2026-05-07 16:47 51.38808 -1.01629 25650 ft 465 kts 94°
2026-05-07 16:47 51.38588 -0.96431 25970 ft 468 kts 94°
2026-05-07 16:48 51.38360 -0.91276 26283 ft 470 kts 95°
2026-05-07 16:48 51.38113 -0.86052 26611 ft 472 kts 95°
2026-05-07 16:48 51.37850 -0.80790 26933 ft 474 kts 95°
2026-05-07 16:48 51.37575 -0.75522 27248 ft 476 kts 95°
2026-05-07 16:49 51.37292 -0.70226 27544 ft 478 kts 95°
2026-05-07 16:49 51.37004 -0.64916 27847 ft 480 kts 95°
2026-05-07 16:49 51.36711 -0.59571 28142 ft 482 kts 96°
2026-05-07 16:49 51.36373 -0.54214 28466 ft 483 kts 96°
2026-05-07 16:50 51.35998 -0.48884 28910 ft 481 kts 97°
2026-05-07 16:50 51.35608 -0.43573 29412 ft 478 kts 97°
2026-05-07 16:50 51.35221 -0.38364 29860 ft 476 kts 97°
2026-05-07 16:50 51.35040 -0.35924 30049 ft 476 kts 97°
2026-05-07 16:51 51.34820 -0.32939 30241 ft 476 kts 97°
2026-05-07 16:51 51.34434 -0.27691 30548 ft 476 kts 97°
2026-05-07 16:51 51.34048 -0.22429 30904 ft 475 kts 97°
2026-05-07 16:51 51.33664 -0.17180 31242 ft 474 kts 97°
2026-05-07 16:52 51.33280 -0.11944 31583 ft 473 kts 97°
2026-05-07 16:52 51.32895 -0.06720 31901 ft 472 kts 97°
2026-05-07 16:52 51.32508 -0.01502 32228 ft 472 kts 97°
2026-05-07 16:52 51.32123 0.03648 32537 ft 471 kts 97°
2026-05-07 16:53 51.31733 0.08842 32860 ft 470 kts 97°
2026-05-07 16:53 51.31338 0.14060 33171 ft 469 kts 97°
2026-05-07 16:53 51.30944 0.19240 33461 ft 469 kts 97°
2026-05-07 16:53 51.30547 0.24424 33745 ft 468 kts 97°
2026-05-07 16:54 51.30149 0.29593 33842 ft 468 kts 97°
2026-05-07 16:54 51.29749 0.34746 34072 ft 467 kts 97°
2026-05-07 16:54 51.29347 0.39910 34269 ft 468 kts 97°
2026-05-07 16:54 51.28947 0.45016 34470 ft 468 kts 97°
2026-05-07 16:55 51.28539 0.50182 34679 ft 468 kts 97°
2026-05-07 16:55 51.28130 0.55339 34860 ft 469 kts 97°
2026-05-07 16:55 51.27715 0.60549 34854 ft 472 kts 97°
2026-05-07 16:56 51.26884 0.70883 34883 ft 470 kts 98°
2026-05-07 16:56 51.25627 0.86296 34939 ft 464 kts 98°
2026-05-07 16:57 51.24781 0.96522 35003 ft 463 kts 98°
2026-05-07 16:57 51.23930 1.06707 35002 ft 463 kts 98°
2026-05-07 16:58 51.23069 1.16893 34996 ft 463 kts 98°
2026-05-07 16:58 51.22204 1.27028 34979 ft 463 kts 98°
2026-05-07 16:59 51.21323 1.37238 34969 ft 464 kts 98°
2026-05-07 16:59 51.20437 1.47400 34964 ft 465 kts 98°
2026-05-07 17:00 51.19534 1.57642 34976 ft 465 kts 98°
2026-05-07 17:00 51.18624 1.67866 34993 ft 466 kts 98°
2026-05-07 17:01 51.17709 1.78046 35007 ft 466 kts 98°
2026-05-07 17:01 51.16779 1.88293 35019 ft 467 kts 98°
2026-05-07 17:02 51.15839 1.98541 35025 ft 467 kts 98°
2026-05-07 17:02 51.14889 2.08794 35019 ft 467 kts 98°
2026-05-07 17:03 51.13937 2.18979 35009 ft 467 kts 98°
2026-05-07 17:03 51.12967 2.29245 34984 ft 468 kts 99°
2026-05-07 17:04 51.11990 2.39494 34961 ft 468 kts 99°
2026-05-07 17:04 51.11012 2.49661 34994 ft 467 kts 99°
2026-05-07 17:05 51.10021 2.59883 35029 ft 466 kts 99°
2026-05-07 17:05 51.08776 2.69976 35048 ft 465 kts 106°
2026-05-07 17:06 51.06966 2.79801 35049 ft 465 kts 108°
2026-05-07 17:06 51.05093 2.89650 35045 ft 464 kts 107°
2026-05-07 17:07 51.03264 2.99496 35022 ft 465 kts 107°
2026-05-07 17:07 51.01453 3.09348 34998 ft 465 kts 107°
2026-05-07 17:08 50.99636 3.19205 34958 ft 465 kts 107°
2026-05-07 17:08 50.97821 3.28985 34924 ft 464 kts 107°
2026-05-07 17:09 50.95986 3.38818 34914 ft 464 kts 107°
2026-05-07 17:09 50.94139 3.48659 34919 ft 464 kts 107°
2026-05-07 17:10 50.92302 3.58410 34910 ft 464 kts 108°
2026-05-07 17:10 50.90437 3.68212 34922 ft 463 kts 108°
2026-05-07 17:11 50.88549 3.77967 34907 ft 463 kts 108°
2026-05-07 17:11 50.86659 3.87679 34920 ft 463 kts 108°
2026-05-07 17:12 50.84753 3.97437 34928 ft 463 kts 108°
2026-05-07 17:12 50.82848 4.07156 34968 ft 463 kts 108°
2026-05-07 17:13 50.80930 4.16889 34992 ft 462 kts 108°
2026-05-07 17:13 50.79013 4.26568 35014 ft 462 kts 109°
2026-05-07 17:14 50.77081 4.36271 35038 ft 462 kts 109°
2026-05-07 17:14 50.75145 4.45952 35037 ft 462 kts 109°
2026-05-07 17:15 50.73216 4.55558 35026 ft 462 kts 109°
2026-05-07 17:15 50.71282 4.65246 34998 ft 462 kts 108°
2026-05-07 17:16 50.69406 4.74954 34968 ft 462 kts 108°
2026-05-07 17:16 50.67524 4.84650 34942 ft 462 kts 108°
2026-05-07 17:17 50.65630 4.94268 34943 ft 462 kts 109°
2026-05-07 17:17 50.63658 5.03920 34971 ft 463 kts 109°
2026-05-07 17:18 50.61667 5.13560 34998 ft 463 kts 109°
2026-05-07 17:18 50.59670 5.23227 35029 ft 463 kts 109°
2026-05-07 17:19 50.57670 5.32883 35045 ft 463 kts 109°
2026-05-07 17:19 50.55677 5.42464 35048 ft 464 kts 109°
2026-05-07 17:20 50.53663 5.52107 35036 ft 464 kts 110°
2026-05-07 17:20 50.51741 5.61320 35016 ft 465 kts 108°
2026-05-07 17:21 50.50578 5.71322 34995 ft 466 kts 99°
2026-05-07 17:21 50.49889 5.79610 34965 ft 467 kts 98°
2026-05-07 17:22 50.49642 5.82593 34963 ft 467 kts 98°
2026-05-07 17:22 50.48781 5.92638 34938 ft 467 kts 99°
2026-05-07 17:23 50.47878 6.02658 34930 ft 467 kts 99°
2026-05-07 17:23 50.46961 6.12599 34928 ft 467 kts 99°
2026-05-07 17:24 50.46025 6.22634 34923 ft 467 kts 99°
2026-05-07 17:24 50.45083 6.32651 34917 ft 467 kts 100°
2026-05-07 17:25 50.44125 6.42752 34913 ft 467 kts 100°
2026-05-07 17:25 50.43164 6.52790 34917 ft 467 kts 100°
2026-05-07 17:26 50.42188 6.62878 34913 ft 467 kts 100°
2026-05-07 17:26 50.41205 6.72957 34937 ft 468 kts 100°
2026-05-07 17:27 50.40211 6.83050 34958 ft 468 kts 100°
2026-05-07 17:27 50.39209 6.93138 34973 ft 468 kts 100°
2026-05-07 17:28 50.38204 7.03156 34989 ft 468 kts 101°
2026-05-07 17:28 50.37183 7.13246 34994 ft 468 kts 101°
2026-05-07 17:29 50.36330 7.21608 34986 ft 467 kts 101°
2026-05-07 17:29 50.35126 7.33311 34977 ft 467 kts 101°
2026-05-07 17:30 50.34251 7.41742 34956 ft 467 kts 101°
2026-05-07 17:30 50.33205 7.51730 34931 ft 467 kts 101°
2026-05-07 17:31 50.32145 7.61778 34930 ft 467 kts 101°
2026-05-07 17:31 50.31165 7.70992 34922 ft 468 kts 101°
2026-05-07 17:32 50.30087 7.81043 34928 ft 468 kts 101°
2026-05-07 17:32 50.29009 7.91024 34934 ft 468 kts 101°
2026-05-07 17:33 50.27920 8.01099 34954 ft 469 kts 101°
2026-05-07 17:33 50.26829 8.11150 34969 ft 469 kts 101°
2026-05-07 17:34 50.25718 8.21210 34990 ft 469 kts 101°
2026-05-07 17:34 50.24604 8.31211 35002 ft 469 kts 101°
2026-05-07 17:35 50.23477 8.41265 35004 ft 470 kts 102°
2026-05-07 17:35 50.22340 8.51337 35001 ft 470 kts 102°
2026-05-07 17:36 50.21201 8.61352 35006 ft 470 kts 102°
2026-05-07 17:36 50.20047 8.71413 35007 ft 470 kts 102°
2026-05-07 17:37 50.18891 8.81405 34989 ft 470 kts 102°
2026-05-07 17:37 50.17721 8.91445 34978 ft 470 kts 102°
2026-05-07 17:38 50.16540 9.01496 34955 ft 470 kts 102°
2026-05-07 17:38 50.15360 9.11464 34936 ft 470 kts 102°
2026-05-07 17:39 50.14161 9.21516 35030 ft 470 kts 101°
2026-05-07 17:39 50.12957 9.31527 35049 ft 470 kts 101°
2026-05-07 17:40 50.11741 9.41570 35056 ft 470 kts 101°
2026-05-07 17:40 50.10523 9.51544 35056 ft 471 kts 101°
2026-05-07 17:41 50.09289 9.61581 35049 ft 471 kts 101°
2026-05-07 17:41 50.08045 9.71622 35055 ft 471 kts 101°
2026-05-07 17:42 50.06800 9.81590 35050 ft 472 kts 101°
2026-05-07 17:42 50.05537 9.91633 35052 ft 472 kts 101°
2026-05-07 17:43 50.04265 10.01671 35052 ft 472 kts 101°
2026-05-07 17:43 50.02987 10.11689 35044 ft 472 kts 101°
2026-05-07 17:44 50.01706 10.21652 35045 ft 472 kts 102°
2026-05-07 17:44 50.00412 10.31650 35047 ft 472 kts 102°
2026-05-07 17:45 49.99108 10.41645 35054 ft 472 kts 102°
2026-05-07 17:45 49.97797 10.51632 35042 ft 472 kts 102°
2026-05-07 17:46 49.96477 10.61606 35043 ft 471 kts 102°
2026-05-07 17:46 49.95147 10.71595 35048 ft 471 kts 102°
2026-05-07 17:47 49.93818 10.81503 35043 ft 471 kts 102°
2026-05-07 17:47 49.92473 10.91462 35042 ft 471 kts 102°
2026-05-07 17:48 49.91118 11.01425 35043 ft 472 kts 102°
2026-05-07 17:48 49.89753 11.11397 35037 ft 472 kts 102°
2026-05-07 17:49 49.88381 11.21351 35042 ft 472 kts 102°
2026-05-07 17:49 49.87002 11.31282 35037 ft 473 kts 103°
2026-05-07 17:50 49.85606 11.41273 35038 ft 473 kts 103°
2026-05-07 17:50 49.84209 11.51207 35034 ft 474 kts 103°
2026-05-07 17:51 49.82796 11.61190 35024 ft 474 kts 103°
2026-05-07 17:51 49.81373 11.71168 35016 ft 475 kts 103°
2026-05-07 17:52 49.79948 11.81103 35018 ft 475 kts 103°
2026-05-07 17:52 49.78504 11.91098 35004 ft 476 kts 103°
2026-05-07 17:53 49.77049 12.01109 35013 ft 476 kts 103°
2026-05-07 17:53 49.75593 12.11065 35013 ft 476 kts 104°
2026-05-07 17:54 49.74123 12.21049 35015 ft 476 kts 104°
2026-05-07 17:54 49.72643 12.31040 35021 ft 477 kts 104°
2026-05-07 17:55 49.71155 12.41025 35026 ft 477 kts 104°
2026-05-07 17:55 49.69672 12.51022 35031 ft 477 kts 103°
2026-05-07 17:56 49.68295 12.60989 35029 ft 477 kts 103°
2026-05-07 17:56 49.66908 12.71020 35028 ft 477 kts 103°
2026-05-07 17:57 49.65601 12.79296 35012 ft 476 kts 111°
2026-05-07 17:57 49.63803 12.85513 35022 ft 472 kts 123°
2026-05-07 17:57 49.62020 12.89677 35035 ft 471 kts 127°
2026-05-07 17:58 49.58248 12.97943 35021 ft 471 kts 127°
2026-05-07 17:58 49.54478 13.06238 35022 ft 471 kts 127°
2026-05-07 17:59 49.50740 13.14559 35022 ft 472 kts 127°
2026-05-07 17:59 49.47027 13.22840 35023 ft 472 kts 127°
2026-05-07 18:00 49.43287 13.31154 35021 ft 472 kts 127°
2026-05-07 18:00 49.39535 13.39463 35028 ft 473 kts 127°
2026-05-07 18:01 49.35795 13.47718 35023 ft 473 kts 127°
2026-05-07 18:01 49.32037 13.55993 35028 ft 473 kts 127°
2026-05-07 18:02 49.26346 13.68349 35028 ft 472 kts 128°
2026-05-07 18:03 49.22469 13.76417 35023 ft 472 kts 129°
2026-05-07 18:03 49.18562 13.84517 35025 ft 472 kts 129°
2026-05-07 18:04 49.14673 13.92598 35032 ft 471 kts 129°
2026-05-07 18:04 49.10788 14.00662 35023 ft 471 kts 129°
2026-05-07 18:05 49.06896 14.08717 35024 ft 470 kts 129°
2026-05-07 18:05 49.03097 14.16556 35027 ft 470 kts 129°
2026-05-07 18:06 48.99275 14.24422 35021 ft 469 kts 129°
2026-05-07 18:06 48.95483 14.32338 35013 ft 471 kts 125°
2026-05-07 18:07 48.92706 14.41391 35019 ft 475 kts 113°
2026-05-07 18:07 48.90424 14.50853 35009 ft 475 kts 113°
2026-05-07 18:08 48.88136 14.60291 35006 ft 475 kts 113°
2026-05-07 18:08 48.85815 14.69638 34999 ft 476 kts 114°
2026-05-07 18:09 48.83452 14.79029 35007 ft 476 kts 114°
2026-05-07 18:09 48.81095 14.88441 34997 ft 476 kts 114°
2026-05-07 18:10 48.78782 14.97877 34998 ft 476 kts 113°
2026-05-07 18:10 48.76483 15.07248 34992 ft 477 kts 114°
2026-05-07 18:11 48.74155 15.16667 34990 ft 476 kts 114°
2026-05-07 18:11 48.71832 15.26008 34983 ft 476 kts 114°
2026-05-07 18:12 48.69536 15.35195 34988 ft 475 kts 114°
2026-05-07 18:12 48.67603 15.42901 34997 ft 474 kts 114°
2026-05-07 18:13 48.64870 15.53755 34974 ft 474 kts 115°
2026-05-07 18:13 48.62901 15.61544 34977 ft 473 kts 115°
2026-05-07 18:14 48.60561 15.70762 34977 ft 472 kts 115°
2026-05-07 18:14 48.58199 15.80031 34970 ft 473 kts 115°
2026-05-07 18:15 48.55815 15.89343 34982 ft 476 kts 115°
2026-05-07 18:15 48.53429 15.98629 34970 ft 477 kts 115°
2026-05-07 18:16 48.51022 16.07964 34969 ft 476 kts 115°
2026-05-07 18:16 48.48609 16.17280 34973 ft 475 kts 115°
2026-05-07 18:17 48.46208 16.26511 34972 ft 475 kts 115°
2026-05-07 18:17 48.43784 16.35793 34980 ft 475 kts 115°
2026-05-07 18:18 48.41365 16.45019 34985 ft 476 kts 115°
2026-05-07 18:18 48.38922 16.54299 34989 ft 477 kts 116°
2026-05-07 18:19 48.36466 16.63588 34992 ft 478 kts 116°
2026-05-07 18:19 48.34000 16.72884 34986 ft 479 kts 116°
2026-05-07 18:20 48.31510 16.82229 34991 ft 480 kts 116°
2026-05-07 18:20 48.29034 16.91486 34985 ft 481 kts 116°
2026-05-07 18:21 48.26533 17.00800 34987 ft 480 kts 116°
2026-05-07 18:21 48.24033 17.10073 34988 ft 479 kts 117°
2026-05-07 18:22 48.21532 17.19318 34725 ft 478 kts 117°
2026-05-07 18:22 48.20696 17.22393 34276 ft 480 kts 117°
2026-05-07 18:22 48.19019 17.28564 33436 ft 475 kts 118°
2026-05-07 18:22 48.17777 17.33126 32777 ft 472 kts 118°
2026-05-07 18:23 48.16540 17.37659 32161 ft 469 kts 118°
2026-05-07 18:23 48.15307 17.42166 31525 ft 466 kts 118°
2026-05-07 18:23 48.14092 17.46598 30835 ft 465 kts 118°
2026-05-07 18:23 48.12870 17.51074 30103 ft 465 kts 119°
2026-05-07 18:24 48.11645 17.55551 29208 ft 464 kts 118°
2026-05-07 18:24 48.10409 17.60019 28228 ft 465 kts 118°
2026-05-07 18:24 48.09164 17.64502 27353 ft 465 kts 118°
2026-05-07 18:24 48.07930 17.68950 26727 ft 459 kts 118°
2026-05-07 18:25 48.06714 17.73337 26139 ft 453 kts 118°
2026-05-07 18:25 48.05511 17.77668 25526 ft 448 kts 118°
2026-05-07 18:25 48.04318 17.81959 24876 ft 444 kts 118°
2026-05-07 18:25 48.03134 17.86202 24228 ft 441 kts 117°
2026-05-07 18:26 48.01956 17.90418 23625 ft 437 kts 117°
2026-05-07 18:26 48.00803 17.94540 22956 ft 434 kts 117°
2026-05-07 18:26 47.99640 17.98690 22247 ft 430 kts 117°
2026-05-07 18:26 47.98484 18.02809 21527 ft 429 kts 117°
2026-05-07 18:27 47.97334 18.06896 20910 ft 424 kts 117°
2026-05-07 18:27 47.96194 18.10946 20322 ft 420 kts 117°
2026-05-07 18:27 47.95081 18.14895 19751 ft 416 kts 117°
2026-05-07 18:27 47.93959 18.18864 19188 ft 412 kts 117°
2026-05-07 18:28 47.92849 18.22785 18630 ft 409 kts 117°
2026-05-07 18:28 47.91743 18.26687 18042 ft 406 kts 117°
2026-05-07 18:28 47.90644 18.30555 17414 ft 403 kts 117°
2026-05-07 18:28 47.89555 18.34388 16832 ft 400 kts 117°
2026-05-07 18:29 47.88471 18.38199 16268 ft 397 kts 117°
2026-05-07 18:29 47.87396 18.41965 15726 ft 393 kts 116°
2026-05-07 18:29 47.86237 18.45621 15183 ft 387 kts 124°
2026-05-07 18:29 47.84659 18.48752 14664 ft 380 kts 136°
2026-05-07 18:30 47.82718 18.51371 14113 ft 374 kts 148°
2026-05-07 18:30 47.80543 18.53473 13554 ft 370 kts 151°
2026-05-07 18:30 47.78363 18.55490 12966 ft 369 kts 151°
2026-05-07 18:30 47.76188 18.57515 12417 ft 366 kts 150°
2026-05-07 18:31 47.74043 18.59540 11885 ft 364 kts 150°
2026-05-07 18:31 47.71943 18.61538 11368 ft 361 kts 149°
2026-05-07 18:31 47.69850 18.63552 11025 ft 354 kts 147°
2026-05-07 18:31 47.67990 18.65846 10869 ft 344 kts 136°
2026-05-07 18:32 47.66441 18.68400 10730 ft 332 kts 134°
2026-05-07 18:32 47.64964 18.70894 10596 ft 322 kts 134°
2026-05-07 18:32 47.63528 18.73293 10473 ft 312 kts 134°
2026-05-07 18:32 47.62120 18.75620 10337 ft 303 kts 134°
2026-05-07 18:33 47.60741 18.77888 10212 ft 295 kts 134°
2026-05-07 18:33 47.59389 18.80106 10096 ft 286 kts 134°
2026-05-07 18:33 47.58073 18.82263 9963 ft 279 kts 135°
2026-05-07 18:33 47.56768 18.84399 9659 ft 278 kts 134°
2026-05-07 18:34 47.55492 18.86488 9386 ft 276 kts 135°
2026-05-07 18:34 47.54203 18.88596 9103 ft 275 kts 135°
2026-05-07 18:34 47.52940 18.90659 8819 ft 273 kts 135°
2026-05-07 18:34 47.51689 18.92702 8549 ft 272 kts 135°
2026-05-07 18:35 47.50419 18.94775 8270 ft 270 kts 135°
2026-05-07 18:35 47.49156 18.96835 8007 ft 269 kts 135°
2026-05-07 18:35 47.47900 18.98884 7720 ft 268 kts 135°
2026-05-07 18:35 47.46650 19.00920 7439 ft 267 kts 135°
2026-05-07 18:36 47.45403 19.02951 7167 ft 266 kts 135°
2026-05-07 18:36 47.44178 19.04942 6905 ft 265 kts 135°
2026-05-07 18:36 47.42925 19.06977 6623 ft 264 kts 135°
2026-05-07 18:36 47.41708 19.08952 6351 ft 263 kts 135°
2026-05-07 18:37 47.40484 19.10938 6058 ft 262 kts 135°
2026-05-07 18:37 47.39258 19.12927 5774 ft 260 kts 135°
2026-05-07 18:37 47.38041 19.14898 5533 ft 259 kts 135°
2026-05-07 18:37 47.36839 19.16882 5264 ft 258 kts 133°
2026-05-07 18:38 47.35695 19.18868 4994 ft 257 kts 133°
2026-05-07 18:38 47.34527 19.20907 4724 ft 256 kts 133°
2026-05-07 18:38 47.33381 19.22906 4533 ft 251 kts 133°
2026-05-07 18:38 47.32287 19.24819 4418 ft 243 kts 133°
2026-05-07 18:39 47.31217 19.26695 4322 ft 235 kts 133°
2026-05-07 18:39 47.30187 19.28504 4257 ft 225 kts 133°
2026-05-07 18:39 47.29198 19.30244 4200 ft 219 kts 133°
2026-05-07 18:39 47.28217 19.31971 4137 ft 221 kts 133°
2026-05-07 18:40 47.27233 19.33698 4046 ft 224 kts 133°
2026-05-07 18:40 47.26240 19.35442 3931 ft 218 kts 133°
2026-05-07 18:40 47.25270 19.37147 3889 ft 216 kts 133°
2026-05-07 18:40 47.24300 19.38850 3886 ft 218 kts 133°
2026-05-07 18:41 47.23311 19.40584 3907 ft 223 kts 133°
2026-05-07 18:41 47.22305 19.42346 3757 ft 231 kts 133°
2026-05-07 18:41 47.21502 19.44427 3489 ft 247 kts 102°
2026-05-07 18:41 47.21697 19.46923 3250 ft 251 kts 63°
2026-05-07 18:42 47.22880 19.48726 3053 ft 244 kts 23°
2026-05-07 18:42 47.24482 19.49019 3015 ft 230 kts 344°
2026-05-07 18:42 47.25997 19.48337 3022 ft 227 kts 339°
2026-05-07 18:42 47.27410 19.47345 2892 ft 225 kts 328°
2026-05-07 18:43 47.28768 19.46188 2641 ft 225 kts 328°
2026-05-07 18:43 47.30102 19.45062 2557 ft 214 kts 329°
2026-05-07 18:43 47.31358 19.44025 2518 ft 200 kts 329°
2026-05-07 18:43 47.32559 19.43044 2525 ft 197 kts 329°
2026-05-07 18:44 47.33744 19.42082 2517 ft 195 kts 329°
2026-05-07 18:44 47.34909 19.41127 2516 ft 186 kts 326°
2026-05-07 18:44 47.35837 19.39862 2309 ft 177 kts 308°
2026-05-07 18:44 47.36630 19.38545 2069 ft 166 kts 310°
2026-05-07 18:45 47.37371 19.37347 1860 ft 152 kts 310°
2026-05-07 18:45 47.38068 19.36220 1676 ft 147 kts 310°
2026-05-07 18:45 47.38770 19.35085 1485 ft 152 kts 310°
2026-05-07 18:45 47.39484 19.33929 1284 ft 152 kts 310°
2026-05-07 18:46 47.40173 19.32793 1066 ft 148 kts 311°
2026-05-07 18:46 47.40863 19.31665 873 ft 151 kts 311°
2026-05-07 18:46 47.41569 19.30522 702 ft 153 kts 314°
2026-05-07 18:46 47.42291 19.29386 486 ft 150 kts 313°
2026-05-07 18:47 47.42955 19.28326 455 ft 125 kts 313°
2026-05-07 18:47 47.43429 19.27561 468 ft 57 kts 313°
2026-05-07 18:47 47.43587 19.27305 472 ft 30 kts 311°
2026-05-07 18:47 47.43710 19.27065 470 ft 28 kts 297°
2026-05-07 18:48 47.43762 19.26807 461 ft 12 kts 281°
2026-05-07 18:48 47.43781 19.26666 460 ft 15 kts 282°
2026-05-07 18:48 47.43799 19.26544 458 ft 8 kts 282°
2026-05-07 18:48 47.43809 19.26467 457 ft 9 kts 274°
2026-05-07 18:49 47.43757 19.26416 457 ft 11 kts 201°
2026-05-07 18:49 47.43698 19.26356 457 ft 10 kts 200°
2026-05-07 18:49 47.43638 19.26396 457 ft 10 kts 133°
2026-05-07 18:49 47.43591 19.26470 457 ft 7 kts 133°
2026-05-07 18:50 47.43575 19.26481 457 ft 1 kts 171°
2026-05-07 18:50 47.43552 19.26458 457 ft 7 kts 224°
2026-05-07 18:50 47.43537 19.26436 456 ft 0 kts 225°